{"data":{"norad_id":59838,"epoch":"2026-05-25T05:10:56.288064Z","epoch_age_seconds":67073,"freshness":"FRESH","line1":"1 59838U 24097D   26145.21592926  .00010868  00000+0  40352-3 0  9998","line2":"2 59838  43.0019 201.9047 0001416 249.0690 111.0010 15.27609166113627","mean_motion":15.27609166,"eccentricity":0.0001416,"inclination_deg":43.0019,"raan_deg":201.9047,"arg_perigee_deg":249.069,"mean_anomaly_deg":111.001,"bstar":0.00040352,"rev_number":11362,"period_min":94.264948918223,"perigee_km":481.99023234779,"apogee_km":483.93329551773,"semimajor_km":6861.0987639328,"source":"CELESTRAK","updated_at":"2026-05-25T13:38:19.085610Z"}}